Simultaneous Nadir Overpasses (SNOs) Predictions

Prediction of SNOs between LANDSAT-8 and NOAA-19 Satellite Orbit:

Table of predicted SNOs for the next 14.0 days since TLE Epoch: 3/20/2021
Index Date (LANDSAT-8) Time (LANDSAT-8) Lat,Lon (LANDSAT-8) SZA (LANDSAT-8 ) Date (NOAA-19) Time (NOAA-19) Lat,Lon (NOAA-19) SZA (NOAA-19 ) Distance(km) Time Diff (sec)
1 03/20/2021 21:07:32 80.27,-107.21 81.17 03/20/2021 21:06:40 80.29,-107.12 81.18 3.03 52
2 03/20/2021 21:56:59 -80.27, 60.41 98.86 03/20/2021 21:57:44 -80.27, 60.41 98.83 0.80 45
3 03/23/2021 03:30:42 80.28, 157.07 80.30 03/23/2021 03:30:52 80.29, 156.93 80.31 2.97 10
4 03/25/2021 09:04:26 -80.28,-106.32 100.56 03/25/2021 09:04:09 -80.29,-106.31 100.55 0.94 17
5 03/25/2021 09:53:52 80.28, 61.33 79.44 03/25/2021 09:55:03 80.27, 61.31 79.45 1.48 71
6 03/27/2021 14:38:09 80.29, -9.73 78.59 03/27/2021 14:37:16 80.30, -9.60 78.60 2.79 53
7 03/27/2021 15:27:36 -80.29, 157.94 101.42 03/27/2021 15:28:21 -80.29, 157.78 101.42 2.98 45
8 03/29/2021 21:01:19 80.29,-105.51 77.73 03/29/2021 21:01:28 80.30,-105.55 77.74 1.25 9
9 04/01/2021 02:35:03 -80.29, -8.90 103.11 04/01/2021 02:34:45 -80.29, -8.72 103.10 3.32 18



Historial Predications of SNOs between LANDSAT-8 and NOAA-19
